Regional Weather Roundup
Issued by NWS

Home | Current Version | Previous Version | Graphics & Text | Print | Product List | Glossary On
Versions: 1 2 3 4 5 6 7 8 9 10 11 12 13 14 15 16 17 18 19 20 21 22 23 24 25 26 27 28 29 30 31 32 33 34 35 36 37 38 39 40 41 42 43 44 45 46 47 48 49 50
000
ASUS45 KABQ 270501
RWRNM
NEW MEXICO REGIONAL WEATHER ROUNDUP
NATIONAL WEATHER SERVICE ALBUQUERQUE NM
1100 PM MDT THU MAY 26 2016

NOTE: "FAIR" MEANS FEW OR NO CLOUDS BELOW 12,000 FEET AGL WITH NO
       SIGNIFICANT WEATHER OR OBSTRUCTIONS TO VISION.

      THIS PRODUCT IS RELEASED AS TWO VERSIONS.  ONE VERSION NEAR
      THE TOP OF THE HOUR CONTAINING PRELIMINARY DATA FROM ALBUQUERQUE
      AND OTHER STATIONS.  A FINAL VERSION WITH ADDITIONAL DATA IS
      ISSUED ABOUT 10 MINUTES AFTER THE HOUR.

NMZ501-503-504-510>518-270600-
NORTHWEST PLATEAU/NORTHCENTRAL MOUNTAINS

CITY           SKY/WX    TMP DP  RH WIND       PRES   REMARKS
FARMINGTON     FAIR      56  30  37 W15       29.94R
SANTA FE       FAIR      50  21  32 W7        29.94S
TAOS           FAIR      46  19  34 SW7       29.98R

$$
NMZ402-403-502-505>509-270600-
WESTCENTRAL MOUNTAINS/SOUTHWEST MOUNTAINS

CITY           SKY/WX    TMP DP  RH WIND       PRES   REMARKS
GALLUP         FAIR      50  30  46 W7        30.05R
GRANTS         FAIR      51  26  37 NW15G21   30.03S
SILVER CITY      N/A     54  16  22 NW13      30.02R

$$
NMZ407-409-411-412-270600-
SOUTHERN DESERTS

CITY           SKY/WX    TMP DP  RH WIND       PRES   REMARKS
LORDSBURG      FAIR      61  21  21 W10       29.98R
DEMING         FAIR      63  17  17 NW9       29.95R
HOLLOMAN AFB   FAIR      64  11  13 W13       29.88R
ALAMOGORDO     FAIR      59  14  17 E5        29.90R
T OR C         FAIR      61  15  16 W6        29.93R

$$
NMZ519>523-270600-
CENTRAL VALLEYS/CENTRAL HIGHLANDS

CITY           SKY/WX    TMP DP  RH WIND       PRES   REMARKS
ALBUQUERQUE    FAIR      59  21  23 N10       29.95R
DOUBLE EAGLE   FAIR      51  23  32 NW8       29.97S
CLINES CORNERS FAIR      44  16  32 NW13      29.96S
BELEN          FAIR      52  15  22 W8        29.95R
SOCORRO        NOT AVBL

$$
NMZ524>526-539-540-270600-
SOUTHCENTRAL MOUNTAINS

CITY           SKY/WX    TMP DP  RH WIND       PRES   REMARKS
RUIDOSO        NOT AVBL

$$
NMZ527>531-270600-
NORTHEAST HIGHLANDS/NORTHEAST PLAINS

CITY           SKY/WX    TMP DP  RH WIND       PRES   REMARKS
LAS VEGAS      FAIR      43  16  33 N6        29.95R
RATON          FAIR      44  28  53 N12       29.89F
CLAYTON        FAIR      55  36  48 NW12      29.82R

$$
NMZ532>537-270600-
EASTCENTRAL PLAINS

CITY           SKY/WX    TMP DP  RH WIND       PRES   REMARKS
TUCUMCARI      FAIR      61  17  18 W13       29.78R
CANNON AFB     FAIR      65  15  14 W16G24    29.80R
CLOVIS AIRPORT FAIR      63  19  19 W12       29.79F

$$
NMZ028-029-538-270600-
SOUTHEAST PLAINS

CITY           SKY/WX    TMP DP  RH WIND       PRES   REMARKS
ROSWELL        FAIR      65  15  14 W12       29.82R
ARTESIA        FAIR      64  16  15 W9        29.81S
CARLSBAD       FAIR      74  13   9 W20       29.76R
HOBBS          FAIR      64  19  17 W8        29.81R


$$




USA.gov is the U.S. government's official web portal to all federal, state and local government web resources and services.